Miscellaneous Local Product
Issued by NWS North Platte, NE

Home | Current Version | Previous Version | Text Only | Print | Product List | Glossary Off
Versions: 1 2 3 4 5 6 7 8 9 10 11 12 13 14 15 16 17 18 19 20 21 22 23 24 25 26 27 28 29 30 31 32 33 34 35 36 37 38 39 40 41 42 43 44 45 46 47 48 49 50

932
AXUS43 KLBF 221210
MISLBF


WESTERN AND NORTH CENTRAL NEBRASKA HOURLY WEATHER ROUNDUP
NATIONAL WEATHER SERVICE NORTH PLATTE NE
700 AM CDT TUE AUG 22 2017

NOTE: "FAIR" INDICATES FEW OR NO CLOUDS BELOW 12,000 FEET WITH NO
SIGNIFICANT WEATHER AND/OR OBSTRUCTIONS TO VISIBILITY.

NOTE: STATIONS NOT REPORTING VARIABLES SUCH AS SKY/WEATHER OR
PRESSURE ARE PROVIDED BY RAWS AND APRS NETWORKS AND ARE NOT UNDER
NATIONAL WEATHER SERVICE QUALITY CONTROL.

...OBSERVATIONS IN AND NEAR THE EASTERN PANHANDLE OF NEBRASKA...

CITY           SKY/WX    TMP DP  RH WIND       PRES   REMARKS
GORDON         FAIR      42  39  91 CALM      30.25S
CHADRON        CLEAR     44  41  89 S3        30.25R
ALLIANCE       CLEAR     42  40  92 W6        30.28R
SIDNEY         CLEAR     46  44  93 CALM      30.30S
CRESCENT LAKE    N/A     53  48  83 CALM        N/A
$$

...OBSERVATIONS IN NORTHERN NEBRASKA AND FAR SOUTHERN SOUTH DAKOTA...

CITY           SKY/WX    TMP DP  RH WIND       PRES   REMARKS
WINNER         FAIR      52  49  89 SW6       30.21R
VALENTINE      CLEAR     49  44  83 NW5       30.23R
THEDFORD       CLEAR     48  47  95 CALM      30.25R
AINSWORTH      CLEAR     50  48  94 NW5       30.23R
O`NEILL        CLEAR     53  51  94 NW5       30.19R
ORD            CLEAR     54  50  86 NW5       30.18R
BROKEN BOW     CLEAR     54  51  90 N3        30.20R
VALENTINE NWR    N/A     51  47  85 CALM        N/A
HALSEY           N/A     52  49  89 CALM        N/A
BUTTE            N/A     53  48  84 CALM        N/A
CHAMBERS         N/A     52  51  95 CALM        N/A
EWING            N/A     54  52  92 CALM        N/A
$$

...OBSERVATIONS IN SOUTHWEST NEBRASKA AND FAR NORTHEAST COLORADO...

CITY           SKY/WX    TMP DP  RH WIND       PRES   REMARKS
HOLYOKE        FAIR      55  54  94 N6        30.28R
IMPERIAL       CLEAR     54  52  93 N6        30.25R
OGALLALA       CLEAR     53  51  92 CALM      30.26S
NORTH PLATTE   CLEAR     51  50  96 CALM      30.23R
MCCOOK         CLEAR     60  59  96 NE12      30.19R
LEXINGTON      CLEAR     58  53  83 NE6       30.21R
STAPLETON        N/A     52  48  87 CALM        N/A
GOTHENBURG       N/A     59  51  75 N6          N/A
CALLAWAY         N/A     56  52  88 NE5         N/A
$$

...OBSERVATIONS IN CENTRAL LINCOLN COUNTY AREA...

CITY           SKY/WX    TMP DP  RH WIND       PRES   REMARKS
N.P. AIRPORT   CLEAR     51  50  96 CALM      30.23R
N.P. DOWNTOWN    N/A     56  51  85 CALM        N/A
N.P. SOUTHEAST   N/A     55  51  85 CALM        N/A
N.P. HILLCREST   N/A     55  51  87 E9          N/A
$$

...SOME OBSERVATIONS FROM AROUND THE REGION...

CITY           SKY/WX    TMP DP  RH WIND       PRES   REMARKS
DENVER         CLOUDY    57  54  89 SE9       30.32R
LIMON          MOCLDY    58  56  93 CALM      30.34R
ASPEN          CLOUDY    51  38  60 SW7       30.44R
LARAMIE        CLOUDY    51  46  83 S17       30.37S
CASPER         CLEAR     45  37  73 W3        30.28R
CHEYENNE       CLOUDY    57  49  74 S8        30.35S
SCOTTSBLUFF    CLEAR     52  46  80 E5        30.28R
GRAND ISLAND   CLEAR     58  57  97 N5        30.18R
OMAHA          CLOUDY    64  61  90 N8        30.10R
SIOUX FALLS    CLEAR     54  52  93 NW5       30.12R
PIERRE         CLEAR     52  47  83 SW5       30.19R
RAPID CITY     CLEAR     51  40  65 CALM      30.23R
BISMARCK       CLEAR     47  44  90 SW3       30.18R
KANSAS CITY    CLOUDY    65  64  97 W5        30.06R
HILL CITY      CLEAR     65  63  93 N13       30.17R
WICHITA        MOCLDY    74  72  93 S5        30.00R
DODGE CITY     CLOUDY    68  65  90 N18G26    30.10R
OKLAHOMA CITY  CLOUDY    72  70  93 S8        30.03R
DALLAS         PTCLDY    79  73  82 SW7       30.03R
AMARILLO       CLEAR     66  63  90 S9        30.15R
$$




USA.gov is the U.S. government's official web portal to all federal, state and local government web resources and services.